{"data":{"norad_id":60315,"intl_designator":"2024-133Q","name":"STARLINK-32194","alt_names":[],"object_type":"PAYLOAD","status":"ACTIVE","operator":null,"country":"US","launch_date":"2024-07-28","launch_site_code":"AFWTR","launch_vehicle":null,"mission":null,"orbit_class":"UNKNOWN","rcs_meters":null,"size_class":null,"mass_kg":null,"dimensions":null,"purposes":["comms"],"wikipedia_slug":null,"has_3d_model":false,"image_url":null,"decayed_at":null,"tle_current":{"epoch":"2026-05-24T20:52:10.318368Z","epoch_age_seconds":80268,"freshness":"FRESH","line1":"1 60315U 24133Q   26144.86956387  .00001681  00000+0  68860-4 0  9994","line2":"2 60315  53.1615 303.2263 0001039  83.9681 276.1438 15.30206946103309","mean_motion":15.30206946,"eccentricity":0.0001039,"inclination_deg":53.1615,"raan_deg":303.2263,"arg_perigee_deg":83.9681,"mean_anomaly_deg":276.1438,"bstar":6.886e-5,"rev_number":10330,"period_min":94.104918538254,"perigee_km":474.48226886861,"apogee_km":475.90639111899,"semimajor_km":6853.3313299938,"source":"CELESTRAK","updated_at":"2026-05-25T13:38:19.230838Z"}}}